Home   Weather   Liverpool   Past weeks

Flag for United Kingdom Past Weather in Liverpool, England, United Kingdom — Yesterday and Last 2 Weeks

Now
50 °F

Passing clouds.


Feels Like: 45 °F
Forecast: 40 / 49 °F
Wind: 14 mph from West

Location: Liverpool Airport

Current Time: Apr 24, 2017 at 4:44:41 am

Latest Report: Apr 24, 2017 at 4:20 am


Visibility: N/A

Pressure: 30.04 "Hg

Humidity: 88%

Dew Point: 46 °F

Location of LiverpoolLocation

Past Weather in Liverpool — Graph

°F

Liverpool Temperature Yesterday

Maximum temperature yesterday: 54 °F (at 12:50 pm)
Minimum temperature yesterday: 43 °F (at 5:20 am)
Average temperature yesterday: 49 °F

High & Low Weather Summary for the Past Weeks

 TemperatureHumidityPressure
High66 °F (Apr 9, 12:50 pm)100% (Apr 14, 8:50 am)30.63 "Hg (Apr 14, 8:50 am)
Low37 °F (Apr 18, 4:20 am)41% (Apr 18, 4:50 pm)29.92 "Hg (Apr 14, 2:50 pm)
Average50 °F76%30.26 "Hg
* Reported Apr 9 3:20 am — Apr 24 3:20 am, Liverpool, Weather by CustomWeather, © 2017

Note: Actual official high and low records may vary slightly from our data, if they occured in-between our weather recording intervals... More about our weather records

Advertising

Liverpool Weather History for the Previous 24 Hours

Scroll right to see more
 ConditionsComfort  
Time TempWeatherWind HumidityBarometerVisibility
3:20 am
Mon, Apr 24
50 °FPassing clouds.9 mph94%30.07 "HgN/A
2:50 am48 °FPassing clouds.10 mph94%30.07 "HgN/A
2:20 am50 °FPassing clouds.10 mph94%30.09 "HgN/A
1:50 am50 °FSprinkles. Passing clouds.13 mph94%30.09 "HgN/A
1:20 am50 °FLight rain. Passing clouds.13 mph94%30.12 "HgN/A
12:50 am50 °FPassing clouds.14 mph94%30.12 "HgN/A
12:20 am50 °FScattered showers. Passing clouds.13 mph94%30.12 "HgN/A
11:50 pm
Sun, Apr 23
50 °FScattered showers. Passing clouds.13 mph88%30.15 "HgN/A
11:20 pm52 °FScattered showers. Passing clouds.13 mph82%30.15 "HgN/A
10:50 pm50 °FClear.10 mph82%30.15 "Hg10 mi
10:20 pm50 °FClear.10 mph82%30.15 "Hg10 mi
9:50 pm48 °FClear.10 mph87%30.18 "Hg10 mi
9:20 pm50 °FClear.7 mph76%30.18 "Hg10 mi
8:50 pm50 °FClear.7 mph76%30.18 "Hg10 mi
8:20 pm50 °FSunny.9 mph76%30.18 "Hg10 mi
7:50 pm52 °FSunny.8 mph72%30.18 "Hg10 mi
7:20 pm52 °FSunny.8 mph72%30.18 "Hg10 mi
6:50 pm52 °FPassing clouds.13 mph67%30.21 "HgN/A
6:20 pm52 °FSunny.16 mph67%30.21 "Hg10 mi
5:50 pm52 °FSunny.17 mph62%30.24 "Hg10 mi
5:20 pm52 °FSunny.16 mph62%30.24 "Hg10 mi
4:50 pm54 °FSunny.16 mph58%30.24 "Hg10 mi
4:20 pm52 °FPassing clouds.16 mph62%30.24 "HgN/A
3:50 pm54 °FPassing clouds.15 mph58%30.27 "HgN/A
3:20 pm54 °FPassing clouds.15 mph58%30.27 "HgN/A
2:50 pm54 °FPassing clouds.13 mph54%30.27 "HgN/A
2:20 pm54 °FPassing clouds.13 mph54%30.27 "HgN/A
1:50 pm52 °FPassing clouds.14 mph58%30.30 "HgN/A
1:20 pm52 °FPassing clouds.14 mph62%30.30 "HgN/A
12:50 pm54 °FPassing clouds.14 mph63%30.30 "HgN/A
12:20 pm52 °FPassing clouds.13 mph62%30.33 "HgN/A
11:50 am52 °FPassing clouds.12 mph62%30.33 "HgN/A
11:20 am52 °FScattered clouds.9 mph62%30.33 "HgN/A
10:50 am52 °FScattered clouds.12 mph62%30.33 "HgN/A
10:20 am50 °FScattered clouds.10 mph62%30.33 "HgN/A
9:50 am52 °FScattered clouds.10 mph62%30.33 "HgN/A
9:20 am50 °FScattered clouds.9 mph62%30.33 "HgN/A
8:50 am48 °FScattered clouds.8 mph71%30.33 "HgN/A
8:20 am48 °FScattered clouds.5 mph76%30.33 "HgN/A
7:50 am48 °FPassing clouds.3 mph76%30.33 "HgN/A
7:20 am46 °FPassing clouds.2 mph87%30.33 "HgN/A
6:50 am45 °FPassing clouds.2 mph87%30.33 "HgN/A
6:20 am43 °FPassing clouds.2 mph93%30.33 "HgN/A
5:50 am43 °FPassing clouds.3 mph93%30.33 "HgN/A
5:20 am43 °FPassing clouds.3 mph93%30.33 "HgN/A
4:50 am45 °FPassing clouds.1 mph93%30.33 "HgN/A
4:20 am45 °FPassing clouds.2 mph93%30.36 "HgN/A
Weather by CustomWeather, © 2017

See weather overviewHow to use our weather pages